Погода Тивяку

Погода Тивяку : погода сейчас, прогноз погоды и архив. Всё, что Вы хотите узнать о погоде Тивяку!

Хотите узнать прогноз погоды Тивяку? Тогда Вам сюда: Погода Тивяку

Поиск расширенной информации на нашем сайте:

Другие новости

Новости СМИ2

Главная страница сайта

Новости сайта

03.07.2017

Напоминаем, что на нашем специализированном сайте Метеоцентр.Азия вы можете получить высокодетализированные автоматические прогнозы погоды по пунктам России, СНГ и мира в авиационном формате (включающие направление и скорость ветра, видимость, явления погоды, количество и форму облачности, нижнюю и верхнюю границу облачности).


Погода Тивяку - сегодня

Время (UTC), дата Ветер
(°,м/с) 
Видим.   Явления Облачность Т
(°С)
Тd
(°С)
f(%) Тe
(°С)
Pmin
(гПа)
dP
(гПа)
Po
(мм)
O2
(г/м3)
Тmin Tmax R s Состояние
почвы
00 18.06.18 140 (ЮВ) 20000 м    10/10 600 м 
[Sc]
+17.1 +13.4 79 +25  1005.4  0.1  719  270           
03 18.06.18 140 (ЮВ) 20000 м    8/8 600 м кучево-дожд. 
[Cb cap]
+20.9 +13.5 63 +28  1003.7  -1  719  266           
06 18.06.18 240 (ЮЗ) 20000 м    8/5 600 м кучево-дожд., средняя, верхняя 
[Cb cap|Ac cast|Ci fib]
+23.4 +9.9 42 +25  1002.3  -1  718  265           
12 18.06.18 тихо ()   20000 м    8/6 600 м средняя 
[Sc|Ac trans]
+15.8 +14 89 +24  1002.8  0.1  717  270           
15 18.06.18 тихо ()   20000 м  слаб. дождь  10/10 600 м 
[Sc]
+13.9 +13.2 96 +21  1000.7  -2.3  716  272           
18 18.06.18 030 (СВ) 20000 м  слаб. дождь  10/10 600 м 
[Sc]
+14 +13.6 97 +23  999.2  -1.4  715  271           
21 18.06.18 120 (ЮВ) 20000 м  {дождь}  10/10 600 м 
[Sc]
+14.8 +14.4 97 +24  999.3  0.2  715  270  +13.7      влажная 
00 19.06.18 140 (ЮВ) 20000 м  {ливн. осадки, дождь}  10/10 300 м кучево-дожд. 
[Cb cap]
+15.9 +15 94 +27  999.1  715  269           
03 19.06.18 180 (Ю) 20000 м  слаб. ливневой дождь  10/10 600 м кучево-дожд. 
[Cb cap]
+17.4 +15.8 90 +30  999.1  0.3  715  267           
06 19.06.18 190 (Ю) 20000 м  {ливн. осадки}  10/10 600 м кучево-дожд. 
[Cb cap]
+18 +16.2 89 +31  999.6  0.6  715  267           
12 19.06.18 180 (Ю) 20000 м    8/8 600 м кучево-дожд. 
[Cb cap]
+16 +14.9 93 +27  1001.4  1.3  716  269           
15 19.06.18 120 (ЮВ) 20000 м    8/8 600 м кучево-дожд. 
[Cb cap]
+15.8 +14 89 +25  1001.2  -0.2  716  270           
18 19.06.18 тихо ()   20000 м    8/8 600 м кучево-дожд. 
[Cb cap]
+13.2 +12.8 97 +19  1001.3  -0.4  716  273           
00 20.06.18 тихо ()   20000 м  слаб. дождь  10/10 600 м 
[Sc]
+17 +15.5 91 +28  999.6  -0.8  715  268           
03 20.06.18 070 (В) 20000 м  слаб. ливневой дождь  10/10 600 м кучево-дожд. 
[Cb cap]
+16.5 +15.3 93 +29  999.5  -0.2  715  268           
06 20.06.18 120 (ЮВ) 20000 м  {гроза, ливн. осадки}  9/9 600 м кучево-дожд. 
[Cb cap]
+15.6 +14.2 91 +26  999.4  -0.2  715  269           
09 20.06.18 тихо ()   20000 м  в посл. час ливневой дождь  10/10 300 м кучево-дожд. 
[Cb cap]
+14.7 +14.2 97 +23  998.4  714  270         
12 20.06.18 010 (С) 20000 м  {ливн. осадки}  10/10 600 м 
[Sc]
+13.8 +13.3 97 +22  998.3  -0.3  714  271           
15 20.06.18 тихо ()   20000 м  слаб. дождь  10/10 600 м 
[Sc]
+12.9 +12.6 98 +19  997.6  -0.8  713  272           
18 20.06.18 тихо ()   20000 м  {дождь}  10/0 
[Sc]
+12.5 +12.2 98 +18  996.6  -1  713  272           
00 21.06.18 тихо ()   20000 м  слаб. дождь  10/10 600 м 
[Sc]
+15.2 +13.9 92 +23  995.5  -0.6  712  269           
03 21.06.18 260 (З) 20000 м  слаб. дождь  10/10 300 м 
[Frnb]
+16.8 +14.6 87 +27  994.5  -0.7  711  267           
06 21.06.18 250 (З) 20000 м  {дождь}  10/10 600 м кучево-дожд. 
[Cb cap]
+17 +13.7 81 +26  994.1  -0.3  711  267           
12 21.06.18 270 (З) 20000 м  слаб. дождь  10/10 600 м кучево-дожд. 
[Cb cap]
+11.9 +11.3 96 +17  996.1  0.8  712  273           
15 21.06.18 260 (З) 20000 м  {дождь}  10/10 600 м 
[Sc]
+10.7 +10.2 97 +14  996.8  0.5  712  274           
Время (UTC), дата Ветер
(°,м/с) 
Видим.   Явления Облачность Т
(°С)
Тd
(°С)
f(%) Тe
(°С)
Pmin
(гПа)
dP
(гПа)
Po
(мм)
O2
(г/м3)
Тmin Tmax R s Состояние
почвы

Для получения пояснительной информации подведите курсор к названию столбца.

ПОГОДА Тивяку - архив

Всё, что Вы хотите узнать о погоде Тивяку - удобно и подробно!

Выберите нужную дату (начиная с 1 января 2015* года) и нажмите кнопку "Найти".
Будут отображены архивные сводки погоды по пункту Тивяку, начиная с указанной даты.


Отображать данные в формате CSV (для использования в таблицах Excel)


Внимание! Наш архив погоды предназначен исключительно для личного некоммерческого использования в познавательных целях. Если Вам необходимы официальные справки о состоянии погоды (для производственных, юридических, коммерческих и т.п. целей), обращайтесь в органы Росгидромета.

*Примечание: данная дата относится к архиву по метеостанциям СССР (Россия, СНГ, Балтия).
Архив по метеостанциям Зарубежной Европы и Азии (кроме Китая) хранится 10 дней, по другим регионам земного шара (Китай, Африка, Америка, Австралия, Океания) - 1 день.

Тивяку - район местоположения метеостанции


Название, широта, долгота, высота метеостанции:
Тивяку 48.6°ш. 137.1°д. 403 м над ур. моря [Российская Федерация]

Дополнительная информация

В oтличие oт бoльшинства пoгoдных сайтoв мы публикуем пoдрoбную метеoинфoрмацию в детальнoм прoфессиoнальнoм фoрмате.

Характеристики температуры и влажнoсти вoздуха измеряются на высoте 2 м в тени вдали oт зданий и деревьев.
Скoрoсть ветра измеряется на высoте 10 м (на урoвне рoста челoвека скoрoсть ветра ниже в 1.5-2 раза). Если метеoстанция нахoдится в гoрoде или в лесу, тo скoрoсть ветра занижена на 2-4 м/с пo сравнению с oткрытым местoм. Скoрoсть ветра над акватoриями крупных рек и oзёр, а также на вершинах хoлмoв на 2-5 м/с выше, чем в oбычных услoвиях.
Атмoсфернoе давление в разных тoчках местнoсти мoжет значительнo oтличаться oт давления на метеoстанции, в зависимoсти oт услoвий рельефа (при пoдъёме на 10 м давление пoнижается примернo на 1 мм рт.ст.).